Погода в Ивановке

Россия / Тамбовская область     51°57′25″N   42°00′03″E
темп.,
°C
ветер,
м/с
пор.,
м/с
влажн.,
%
обл.,
%
осадки,
мм/ч
давл.,
гПа
погр.,
м
5 марта, пт
пт500:000з51095100 0.0 1003527
03:000зюз61197100 0.5 1002516
06:00+1з61198100 0.1 1003545
09:00−2зсз6109497 0.3 1006559
12:00−1ссз458895 0.1 1008638
15:00−1сз468875 0.1 1011551
18:00−6зсз33905 0.0 101325
21:00−7з239422 0.0 101521
6 марта, сб
сб600:00−8сз239587 0.0 101623
03:00−9ссз129479 0.0 101721
06:00−10ссв119494 0.0 101621
09:00−7в229497 0.0 101795
12:00−5в2290100 0.0 1016292
15:00−4всв2289100 0.0 1015401
18:00−7всв2294100 0.0 101421
21:00−9всв129493 0.0 101521
7 марта, вс
вс700:00−10ссз229553 0.0 101521
03:00−10зсз349772 0.1 101672
06:00−13з349525 0.0 101763
09:00−10зюз5119113 0.0 1016321
12:00−5юз7128465 0.0 1013907
15:00−3юз8167585 0.0 10101100
18:00−3юз91874100 0.0 10051226
21:00−2зюз111994100 0.6 10041132
8 марта, пн
пн800:00−6з51180100 0.9 1005326
03:00−8юз5118284 0.9 1006211
06:00−7юз61381100 0.0 1005356
09:00−5юз71391100 0.0 1003500
12:00−3зюз71092100 0.2 1002921
15:00−4зсз9147795 0.5 10041367
18:00−9зсз6148323 0.0 1008543
21:00−11з5138812 0.0 1011344
9 марта, вт
вт900:00−13з49910 0.0 1012166
03:00−14з34910 0.0 101374
06:00−15з34920 0.0 101335
09:00−12з239233 0.0 1014105
12:00−9сз2287100 0.0 1014273
15:00−8ссз3490100 0.0 1014453
18:00−10сз4892100 0.1 1015305
21:00−14ссз4109488 0.1 1017233